| time (UTC) | temp F | wind direction | speed MPH | gust MPH | rain 1hr in | rain 24hr in | rain mn in | humidity % | barometer mb |
| 20260901103738 | 75 | 318 | 2.0 | 4.0 | 0.00 | 0.02 | 0.00 | 94 | 1015.4 |
| 20260901103239 | 75 | 16 | 2.0 | 3.0 | 0.00 | 0.02 | 0.00 | 94 | 1015.4 |
| 20260901102743 | 75 | 3 | 1.0 | 3.0 | 0.00 | 0.02 | 0.00 | 94 | 1015.3 |
| 20260901102230 | 75 | 0 | 2.0 | 3.0 | 0.00 | 0.02 | 0.00 | 94 | 1015.4 |
| 20260901101731 | 75 | 350 | 2.0 | 4.0 | 0.00 | 0.02 | 0.00 | 94 | 1015.3 |
| 20260901101230 | 75 | 2 | 3.0 | 4.0 | 0.00 | 0.02 | 0.00 | 94 | 1015.3 |
| 20260901100730 | 75 | 271 | 3.0 | 4.0 | 0.00 | 0.02 | 0.00 | 94 | 1015.2 |
| 20260901100230 | 75 | 351 | 3.0 | 4.0 | 0.00 | 0.02 | 0.00 | 94 | 1015.2 |
| 20260901095730 | 75 | 6 | 3.0 | 4.0 | 0.00 | 0.02 | 0.00 | 94 | 1015.3 |
| 20260901095229 | 75 | 25 | 2.0 | 3.0 | 0.00 | 0.02 | 0.00 | 94 | 1015.2 |
| 20260901094731 | 75 | 12 | 2.0 | 3.0 | 0.00 | 0.02 | 0.00 | 94 | 1015.1 |
| 20260901094230 | 75 | 10 | 1.0 | 2.0 | 0.00 | 0.02 | 0.00 | 94 | 1015.2 |
| 20260901093731 | 75 | 227 | 1.0 | 3.0 | 0.00 | 0.02 | 0.00 | 94 | 1015.2 |
| 20260901093233 | 75 | 25 | 2.0 | 3.0 | 0.00 | 0.02 | 0.00 | 94 | 1015.1 |
| 20260901092229 | 75 | 328 | 2.0 | 3.0 | 0.00 | 0.02 | 0.00 | 94 | 1015.0 |
| 20260901091730 | 75 | 23 | 2.0 | 3.0 | 0.00 | 0.02 | 0.00 | 94 | 1015.0 |
| 20260901091229 | 76 | 33 | 2.0 | 3.0 | 0.00 | 0.02 | 0.00 | 94 | 1014.9 |
| 20260901090730 | 76 | 0 | 1.0 | 3.0 | 0.00 | 0.02 | 0.00 | 94 | 1014.9 |
| 20260901090229 | 76 | 355 | 1.0 | 3.0 | 0.00 | 0.02 | 0.00 | 94 | 1014.9 |
| 20260901085233 | 75 | 357 | 1.0 | 2.0 | 0.00 | 0.02 | 0.00 | 94 | 1014.9 |
| 20260901084730 | 75 | 353 | 1.0 | 3.0 | 0.00 | 0.02 | 0.00 | 94 | 1014.9 |
| 20260901083729 | 75 | 0 | 0.0 | 2.0 | 0.00 | 0.02 | 0.00 | 94 | 1014.9 |
| 20260901083229 | 76 | 0 | 0.0 | 2.0 | 0.00 | 0.02 | 0.00 | 94 | 1014.9 |
| 20260901081729 | 76 | 337 | 0.0 | 2.0 | 0.00 | 0.02 | 0.00 | 93 | 1014.8 |
| 20260901081229 | 76 | 0 | 1.0 | 2.0 | 0.00 | 0.02 | 0.00 | 93 | 1014.9 |
| 20260901080729 | 76 | 351 | 1.0 | 2.0 | 0.00 | 0.02 | 0.00 | 93 | 1015.0 |
| 20260901080229 | 76 | 338 | 0.0 | 2.0 | 0.00 | 0.02 | 0.00 | 93 | 1015.0 |
| 20260901075728 | 76 | 0 | 1.0 | 3.0 | 0.00 | 0.02 | 0.00 | 93 | 1015.0 |
| 20260901075228 | 76 | 6 | 2.0 | 3.0 | 0.00 | 0.02 | 0.00 | 93 | 1015.0 |
| 20260901074730 | 76 | 4 | 1.0 | 3.0 | 0.00 | 0.02 | 0.00 | 93 | 1015.0 |
| 20260901073729 | 76 | 0 | 0.0 | 0.0 | 0.00 | 0.02 | 0.00 | 93 | 1015.1 |
| 20260901073229 | 76 | 0 | 0.0 | 0.0 | 0.00 | 0.02 | 0.00 | 93 | 1015.2 |
| 20260901072228 | 76 | 0 | 0.0 | 1.0 | 0.00 | 0.02 | 0.00 | 93 | 1015.3 |
| 20260901071733 | 76 | 0 | 0.0 | 1.0 | 0.00 | 0.02 | 0.00 | 93 | 1015.3 |
| 20260901071229 | 76 | 0 | 0.0 | 0.0 | 0.00 | 0.02 | 0.00 | 93 | 1015.3 |
| 20260901070729 | 76 | 0 | 0.0 | 0.0 | 0.00 | 0.02 | 0.00 | 93 | 1015.4 |
| 20260901065729 | 76 | 346 | 1.0 | 2.0 | 0.00 | 0.02 | 0.00 | 93 | 1015.5 |
| 20260901065228 | 76 | 349 | 1.0 | 2.0 | 0.00 | 0.02 | 0.00 | 93 | 1015.6 |
| 20260901064729 | 76 | 0 | 0.0 | 1.0 | 0.00 | 0.02 | 0.00 | 93 | 1015.6 |
| 20260901063729 | 76 | 0 | 0.0 | 2.0 | 0.00 | 0.02 | 0.00 | 93 | 1015.7 |
| 20260901063229 | 76 | 0 | 1.0 | 2.0 | 0.00 | 0.02 | 0.00 | 93 | 1015.7 |
| 20260901062232 | 76 | 4 | 0.0 | 2.0 | 0.00 | 0.02 | 0.00 | 92 | 1015.8 |
| 20260901061729 | 76 | 0 | 0.0 | 3.0 | 0.00 | 0.02 | 0.00 | 92 | 1015.8 |
| 20260901061229 | 76 | 0 | 2.0 | 3.0 | 0.00 | 0.02 | 0.00 | 92 | 1015.9 |
| 20260901060729 | 76 | 343 | 2.0 | 3.0 | 0.00 | 0.02 | 0.00 | 92 | 1015.9 |
| 20260901060229 | 76 | 333 | 1.0 | 2.0 | 0.00 | 0.02 | 0.00 | 92 | 1016.0 |
| 20260901055729 | 77 | 359 | 1.0 | 3.0 | 0.00 | 0.02 | 0.00 | 92 | 1016.0 |
| 20260901054729 | 77 | 351 | 1.0 | 3.0 | 0.00 | 0.02 | 0.00 | 92 | 1016.0 |
| 20260901054229 | 77 | 16 | 0.0 | 2.0 | 0.00 | 0.02 | 0.00 | 92 | 1016.0 |
| 20260901053729 | 77 | 0 | 0.0 | 2.0 | 0.00 | 0.02 | 0.00 | 92 | 1016.0 |
| 20260901053229 | 77 | 0 | 1.0 | 3.0 | 0.00 | 0.02 | 0.00 | 92 | 1016.0 |
| 20260901052728 | 77 | 0 | 2.0 | 3.0 | 0.00 | 0.02 | 0.00 | 92 | 1016.0 |
| 20260901052229 | 77 | 50 | 1.0 | 3.0 | 0.00 | 0.02 | 0.00 | 92 | 1016.0 |
| 20260901051729 | 77 | 0 | 1.0 | 2.0 | 0.00 | 0.02 | 0.00 | 92 | 1016.1 |
| 20260901050233 | 77 | 337 | 2.0 | 4.0 | 0.00 | 0.02 | 0.00 | 91 | 1016.2 |
| 20260901045730 | 77 | 16 | 1.0 | 3.0 | 0.00 | 0.02 | 0.00 | 91 | 1016.3 |
| 20260901045229 | 77 | 0 | 1.0 | 4.0 | 0.00 | 0.02 | 0.00 | 91 | 1016.3 |
| 20260901044730 | 77 | 26 | 2.0 | 4.0 | 0.00 | 0.02 | 0.00 | 91 | 1016.3 |
| 20260901044230 | 77 | 14 | 2.0 | 4.0 | 0.00 | 0.02 | 0.00 | 91 | 1016.3 |
| 20260901043730 | 77 | 359 | 2.0 | 4.0 | 0.00 | 0.02 | 0.00 | 91 | 1016.3 |
| 20260901043229 | 77 | 358 | 1.0 | 2.0 | 0.00 | 0.02 | 0.00 | 91 | 1016.4 |
| 20260901042730 | 77 | 328 | 0.0 | 2.0 | 0.00 | 0.02 | 0.00 | 91 | 1016.3 |
| 20260901042229 | 77 | 0 | 0.0 | 1.0 | 0.00 | 0.02 | 0.00 | 90 | 1016.4 |
| 20260901041731 | 77 | 0 | 0.0 | 1.0 | 0.00 | 0.02 | 0.00 | 90 | 1016.4 |
| 20260901041230 | 77 | 0 | 0.0 | 2.0 | 0.00 | 0.02 | 0.00 | 90 | 1016.4 |
| 20260901040730 | 77 | 353 | 0.0 | 2.0 | 0.00 | 0.02 | 0.00 | 90 | 1016.4 |
| 20260901040230 | 77 | 0 | 1.0 | 2.0 | 0.00 | 0.02 | 0.00 | 89 | 1016.4 |
| 20260901035729 | 78 | 206 | 2.0 | 4.0 | 0.00 | 0.02 | 0.02 | 89 | 1016.5 |
| 20260901035229 | 78 | 17 | 1.0 | 4.0 | 0.00 | 0.02 | 0.02 | 89 | 1016.5 |
| 20260901034730 | 78 | 0 | 1.0 | 2.0 | 0.00 | 0.02 | 0.02 | 89 | 1016.5 |
| 20260901033730 | 78 | 8 | 2.0 | 3.0 | 0.00 | 0.02 | 0.02 | 89 | 1016.6 |
| 20260901033230 | 78 | 11 | 2.0 | 3.0 | 0.00 | 0.02 | 0.02 | 89 | 1016.5 |
| 20260901032734 | 78 | 5 | 1.0 | 3.0 | 0.00 | 0.02 | 0.02 | 89 | 1016.6 |
| 20260901031730 | 78 | 352 | 0.0 | 1.0 | 0.00 | 0.02 | 0.02 | 88 | 1016.6 |
| 20260901031231 | 78 | 0 | 0.0 | 2.0 | 0.00 | 0.02 | 0.02 | 88 | 1016.6 |
| 20260901030730 | 78 | 0 | 1.0 | 2.0 | 0.00 | 0.02 | 0.02 | 87 | 1016.6 |
| 20260901030230 | 79 | 240 | 0.0 | 2.0 | 0.00 | 0.02 | 0.02 | 87 | 1016.6 |
| 20260901025730 | 79 | 0 | 0.0 | 2.0 | 0.00 | 0.02 | 0.02 | 87 | 1016.7 |
| 20260901024731 | 79 | 0 | 1.0 | 4.0 | 0.00 | 0.02 | 0.02 | 86 | 1016.8 |
| 20260901024230 | 79 | 356 | 1.0 | 3.0 | 0.00 | 0.02 | 0.02 | 86 | 1016.8 |
| 20260901023730 | 80 | 0 | 1.0 | 4.0 | 0.00 | 0.02 | 0.02 | 86 | 1016.8 |
| 20260901023229 | 80 | 0 | 2.0 | 4.0 | 0.00 | 0.02 | 0.02 | 85 | 1016.8 |
| 20260901022230 | 80 | 7 | 2.0 | 4.0 | 0.00 | 0.02 | 0.02 | 85 | 1016.7 |
| 20260901021730 | 80 | 23 | 2.0 | 5.0 | 0.00 | 0.02 | 0.02 | 85 | 1016.7 |
| 20260901021231 | 80 | 30 | 3.0 | 5.0 | 0.00 | 0.02 | 0.02 | 85 | 1016.6 |
| 20260901020730 | 80 | 26 | 1.0 | 4.0 | 0.00 | 0.02 | 0.02 | 85 | 1016.5 |
| 20260901020230 | 80 | 0 | 1.0 | 3.0 | 0.00 | 0.02 | 0.02 | 85 | 1016.5 |
| 20260901015730 | 80 | 21 | 1.0 | 3.0 | 0.00 | 0.02 | 0.02 | 85 | 1016.5 |
| 20260901015230 | 80 | 67 | 2.0 | 4.0 | 0.00 | 0.02 | 0.02 | 84 | 1016.4 |
| 20260901013730 | 80 | 120 | 0.0 | 2.0 | 0.00 | 0.02 | 0.02 | 85 | 1016.2 |
| 20260901012229 | 81 | 47 | 1.0 | 3.0 | 0.00 | 0.02 | 0.02 | 84 | 1016.1 |
| 20260901011731 | 81 | 214 | 1.0 | 3.0 | 0.00 | 0.02 | 0.02 | 84 | 1016.0 |
| 20260901011230 | 81 | 83 | 1.0 | 3.0 | 0.00 | 0.02 | 0.02 | 84 | 1015.9 |
| 20260901010730 | 81 | 23 | 1.0 | 4.0 | 0.00 | 0.02 | 0.02 | 84 | 1015.8 |
| 20260901010230 | 81 | 54 | 1.0 | 4.0 | 0.00 | 0.02 | 0.02 | 84 | 1015.7 |
| 20260901005730 | 81 | 52 | 2.0 | 4.0 | 0.00 | 0.02 | 0.02 | 83 | 1015.7 |
| 20260901005230 | 81 | 56 | 2.0 | 5.0 | 0.00 | 0.02 | 0.02 | 83 | 1015.6 |
| 20260901004730 | 81 | 11 | 2.0 | 5.0 | 0.00 | 0.02 | 0.02 | 82 | 1015.6 |
| 20260901004230 | 82 | 0 | 2.0 | 5.0 | 0.00 | 0.02 | 0.02 | 82 | 1015.6 |
| 20260901003729 | 82 | 61 | 2.0 | 5.0 | 0.00 | 0.02 | 0.02 | 81 | 1015.6 |
| 20260901003228 | 82 | 3 | 2.0 | 5.0 | 0.00 | 0.02 | 0.02 | 80 | 1015.6 |
| 20260901002728 | 82 | 0 | 1.0 | 4.0 | 0.00 | 0.02 | 0.02 | 80 | 1015.6 |
| 20260901002228 | 82 | 73 | 1.0 | 5.0 | 0.00 | 0.02 | 0.02 | 79 | 1015.6 |
| 20260901001729 | 82 | 50 | 2.0 | 5.0 | 0.00 | 0.02 | 0.02 | 79 | 1015.6 |
| 20260901001229 | 82 | 251 | 2.0 | 6.0 | 0.00 | 0.02 | 0.02 | 79 | 1015.6 |
| 20260901000730 | 82 | 55 | 2.0 | 6.0 | 0.00 | 0.02 | 0.02 | 79 | 1015.5 |
| 20260831235730 | 83 | 6 | 2.0 | 6.0 | 0.00 | 0.02 | 0.02 | 78 | 1015.5 |
| 20260831235230 | 83 | 100 | 3.0 | 9.0 | 0.00 | 0.02 | 0.02 | 77 | 1015.5 |
| 20260831234733 | 83 | 18 | 3.0 | 9.0 | 0.00 | 0.02 | 0.02 | 77 | 1015.4 |
| 20260831234230 | 83 | 15 | 3.0 | 8.0 | 0.00 | 0.02 | 0.02 | 76 | 1015.4 |
| 20260831233730 | 83 | 24 | 3.0 | 8.0 | 0.00 | 0.02 | 0.02 | 76 | 1015.4 |
| 20260831232729 | 84 | 59 | 4.0 | 11.0 | 0.00 | 0.02 | 0.02 | 74 | 1015.5 |
| 20260831232229 | 84 | 75 | 4.0 | 9.0 | 0.01 | 0.02 | 0.02 | 74 | 1015.5 |
| 20260831231729 | 84 | 30 | 4.0 | 11.0 | 0.01 | 0.02 | 0.02 | 73 | 1015.5 |
| 20260831231229 | 85 | 103 | 4.0 | 11.0 | 0.02 | 0.02 | 0.02 | 73 | 1015.6 |
| 20260831230729 | 85 | 108 | 3.0 | 8.0 | 0.02 | 0.02 | 0.02 | 72 | 1015.5 |
| 20260831230229 | 85 | 8 | 3.0 | 10.0 | 0.02 | 0.02 | 0.02 | 71 | 1015.4 |
| 20260831224730 | 86 | 84 | 4.0 | 11.0 | 0.02 | 0.02 | 0.02 | 70 | 1015.3 |
| 20260831224226 | 86 | 13 | 4.0 | 9.0 | 0.02 | 0.02 | 0.02 | 70 | 1015.2 |
| 20260831223225 | 86 | 109 | 4.0 | 9.0 | 0.02 | 0.02 | 0.02 | 70 | 1015.2 |
| 20260831222725 | 86 | 52 | 4.0 | 9.0 | 0.02 | 0.02 | 0.02 | 70 | 1015.2 |
| 20260831222225 | 86 | 31 | 4.0 | 9.0 | 0.01 | 0.02 | 0.02 | 69 | 1015.0 |
| 20260831221224 | 86 | 74 | 4.0 | 11.0 | 0.00 | 0.01 | 0.01 | 69 | 1014.9 |
| 20260831220724 | 87 | 116 | 3.0 | 11.0 | 0.00 | 0.00 | 0.00 | 67 | 1015.0 |
| 20260831215222 | 86 | 18 | 5.0 | 11.0 | 0.00 | 0.00 | 0.00 | 69 | 1015.0 |
| 20260831214720 | 86 | 102 | 4.0 | 9.0 | 0.00 | 0.00 | 0.00 | 68 | 1015.1 |
| 20260831214219 | 86 | 16 | 3.0 | 9.0 | 0.00 | 0.00 | 0.00 | 69 | 1015.1 |
| 20260831213719 | 86 | 77 | 4.0 | 8.0 | 0.00 | 0.00 | 0.00 | 68 | 1015.1 |
| 20260831213220 | 86 | 110 | 4.0 | 9.0 | 0.00 | 0.00 | 0.00 | 68 | 1015.0 |
| 20260831212720 | 86 | 69 | 4.0 | 10.0 | 0.00 | 0.00 | 0.00 | 69 | 1015.1 |
| 20260831212223 | 86 | 114 | 4.0 | 10.0 | 0.00 | 0.00 | 0.00 | 70 | 1015.1 |
| 20260831211219 | 86 | 33 | 5.0 | 10.0 | 0.00 | 0.00 | 0.00 | 70 | 1015.1 |
| 20260831210219 | 86 | 87 | 5.0 | 9.0 | 0.00 | 0.00 | 0.00 | 70 | 1015.0 |
| 20260831205719 | 86 | 74 | 5.0 | 9.0 | 0.00 | 0.00 | 0.00 | 70 | 1015.0 |
| 20260831205218 | 86 | 52 | 5.0 | 10.0 | 0.00 | 0.00 | 0.00 | 71 | 1015.1 |
| 20260831204714 | 86 | 71 | 4.0 | 10.0 | 0.00 | 0.00 | 0.00 | 71 | 1015.1 |
| 20260831204214 | 87 | 107 | 4.0 | 10.0 | 0.00 | 0.00 | 0.00 | 70 | 1015.0 |
| 20260831203715 | 87 | 19 | 5.0 | 10.0 | 0.00 | 0.00 | 0.00 | 70 | 1015.0 |
| 20260831203215 | 87 | 141 | 4.0 | 10.0 | 0.00 | 0.00 | 0.00 | 69 | 1014.9 |
| 20260831202715 | 87 | 45 | 4.0 | 10.0 | 0.00 | 0.00 | 0.00 | 69 | 1014.9 |
| 20260831202215 | 87 | 151 | 4.0 | 9.0 | 0.00 | 0.00 | 0.00 | 69 | 1014.8 |
| 20260831201715 | 87 | 134 | 4.0 | 11.0 | 0.00 | 0.00 | 0.00 | 69 | 1014.9 |
| 20260831201214 | 88 | 55 | 5.0 | 11.0 | 0.00 | 0.00 | 0.00 | 69 | 1014.9 |
| 20260831200714 | 88 | 27 | 4.0 | 10.0 | 0.00 | 0.00 | 0.00 | 66 | 1014.9 |
| 20260831200214 | 88 | 9 | 3.0 | 9.0 | 0.00 | 0.00 | 0.00 | 66 | 1014.9 |
| 20260831195712 | 87 | 44 | 4.0 | 10.0 | 0.00 | 0.00 | 0.00 | 68 | 1014.9 |
| 20260831195212 | 87 | 39 | 5.0 | 11.0 | 0.00 | 0.00 | 0.00 | 69 | 1014.9 |
| 20260831194708 | 88 | 1 | 4.0 | 11.0 | 0.00 | 0.00 | 0.00 | 68 | 1015.0 |
| 20260831194209 | 87 | 59 | 4.0 | 11.0 | 0.00 | 0.00 | 0.00 | 69 | 1015.1 |
| 20260831193709 | 87 | 346 | 5.0 | 11.0 | 0.00 | 0.00 | 0.00 | 69 | 1015.2 |
| 20260831193209 | 87 | 9 | 5.0 | 10.0 | 0.00 | 0.00 | 0.00 | 69 | 1015.1 |
| 20260831192709 | 87 | 31 | 5.0 | 12.0 | 0.00 | 0.00 | 0.00 | 70 | 1015.2 |
| 20260831192209 | 87 | 49 | 5.0 | 12.0 | 0.00 | 0.00 | 0.00 | 69 | 1015.2 |
| 20260831191709 | 86 | 359 | 3.0 | 8.0 | 0.00 | 0.00 | 0.00 | 72 | 1015.3 |
| 20260831191209 | 87 | 133 | 4.0 | 11.0 | 0.00 | 0.00 | 0.00 | 72 | 1015.3 |
| 20260831190209 | 88 | 24 | 5.0 | 12.0 | 0.00 | 0.00 | 0.00 | 68 | 1015.4 |
| 20260831185709 | 88 | 23 | 5.0 | 12.0 | 0.00 | 0.01 | 0.00 | 69 | 1015.4 |
| 20260831185209 | 87 | 1 | 4.0 | 10.0 | 0.00 | 0.01 | 0.00 | 70 | 1015.5 |
| 20260831184706 | 87 | 111 | 5.0 | 11.0 | 0.00 | 0.01 | 0.00 | 71 | 1015.6 |
| 20260831184207 | 86 | 62 | 6.0 | 11.0 | 0.00 | 0.01 | 0.00 | 72 | 1015.7 |
| 20260831183706 | 87 | 49 | 6.0 | 13.0 | 0.00 | 0.01 | 0.00 | 72 | 1015.8 |
| 20260831183206 | 87 | 2 | 6.0 | 13.0 | 0.00 | 0.01 | 0.00 | 70 | 1015.8 |
| 20260831182707 | 87 | 348 | 5.0 | 13.0 | 0.00 | 0.01 | 0.00 | 71 | 1015.9 |
| 20260831181707 | 87 | 29 | 4.0 | 10.0 | 0.00 | 0.01 | 0.00 | 72 | 1015.8 |
| 20260831181207 | 87 | 46 | 4.0 | 10.0 | 0.00 | 0.01 | 0.00 | 72 | 1015.8 |
| 20260831180707 | 87 | 328 | 6.0 | 9.0 | 0.00 | 0.01 | 0.00 | 70 | 1016.0 |
| 20260831175705 | 87 | 138 | 4.0 | 9.0 | 0.00 | 0.01 | 0.00 | 71 | 1016.1 |
| 20260831175206 | 86 | 99 | 4.0 | 9.0 | 0.00 | 0.01 | 0.00 | 73 | 1016.2 |
| 20260831174701 | 86 | 25 | 4.0 | 10.0 | 0.00 | 0.01 | 0.00 | 74 | 1016.3 |
| 20260831174201 | 86 | 32 | 3.0 | 10.0 | 0.00 | 0.01 | 0.00 | 75 | 1016.4 |
| 20260831173701 | 87 | 24 | 4.0 | 10.0 | 0.00 | 0.01 | 0.00 | 73 | 1016.5 |
| 20260831173201 | 87 | 69 | 4.0 | 10.0 | 0.00 | 0.01 | 0.00 | 73 | 1016.5 |
| 20260831172701 | 87 | 13 | 4.0 | 12.0 | 0.00 | 0.01 | 0.00 | 71 | 1016.5 |
| 20260831171701 | 87 | 72 | 4.0 | 9.0 | 0.00 | 0.01 | 0.00 | 72 | 1016.5 |
| 20260831170701 | 86 | 28 | 5.0 | 11.0 | 0.00 | 0.01 | 0.00 | 74 | 1016.6 |
| 20260831170201 | 88 | 118 | 4.0 | 11.0 | 0.00 | 0.01 | 0.00 | 74 | 1016.6 |
| 20260831165700 | 89 | 71 | 3.0 | 11.0 | 0.00 | 0.01 | 0.00 | 65 | 1016.7 |
| 20260831165200 | 88 | 16 | 3.0 | 11.0 | 0.00 | 0.01 | 0.00 | 64 | 1016.7 |
| 20260831164701 | 87 | 23 | 3.0 | 8.0 | 0.00 | 0.01 | 0.00 | 67 | 1016.8 |
| 20260831164201 | 87 | 127 | 3.0 | 7.0 | 0.00 | 0.01 | 0.00 | 67 | 1016.8 |
| 20260831163703 | 88 | 148 | 4.0 | 7.0 | 0.00 | 0.01 | 0.00 | 67 | 1016.8 |
| 20260831163201 | 88 | 85 | 3.0 | 7.0 | 0.00 | 0.01 | 0.00 | 66 | 1016.9 |
| 20260831162701 | 87 | 74 | 3.0 | 8.0 | 0.00 | 0.01 | 0.00 | 70 | 1017.0 |
| 20260831162201 | 88 | 85 | 4.0 | 9.0 | 0.00 | 0.01 | 0.00 | 67 | 1017.1 |
| 20260831161701 | 87 | 359 | 4.0 | 9.0 | 0.00 | 0.01 | 0.00 | 67 | 1017.1 |
| 20260831161201 | 87 | 3 | 4.0 | 8.0 | 0.00 | 0.01 | 0.00 | 69 | 1017.2 |
| 20260831160701 | 87 | 4 | 3.0 | 8.0 | 0.00 | 0.01 | 0.00 | 70 | 1017.2 |
| 20260831160201 | 87 | 126 | 3.0 | 9.0 | 0.00 | 0.01 | 0.00 | 69 | 1017.2 |
| 20260831155701 | 87 | 52 | 3.0 | 9.0 | 0.00 | 0.01 | 0.00 | 71 | 1017.3 |
| 20260831155202 | 86 | 25 | 4.0 | 9.0 | 0.00 | 0.01 | 0.00 | 72 | 1017.4 |
| 20260831153200 | 85 | 359 | 5.0 | 12.0 | 0.00 | 0.01 | 0.00 | 75 | 1017.5 |
| 20260831152700 | 85 | 342 | 5.0 | 12.0 | 0.00 | 0.01 | 0.00 | 78 | 1017.7 |
| 20260831152200 | 85 | 27 | 6.0 | 11.0 | 0.00 | 0.01 | 0.00 | 77 | 1017.6 |
| 20260831151700 | 85 | 342 | 6.0 | 11.0 | 0.00 | 0.01 | 0.00 | 76 | 1017.6 |
| 20260831151200 | 84 | 20 | 6.0 | 10.0 | 0.00 | 0.01 | 0.00 | 79 | 1017.5 |
| 20260831150701 | 84 | 17 | 5.0 | 9.0 | 0.00 | 0.01 | 0.00 | 78 | 1017.4 |
| 20260831145201 | 83 | 16 | 4.0 | 8.0 | 0.00 | 0.01 | 0.00 | 81 | 1017.4 |
| 20260831144702 | 83 | 339 | 4.0 | 8.0 | 0.00 | 0.01 | 0.00 | 81 | 1017.4 |
| 20260831144203 | 83 | 9 | 3.0 | 8.0 | 0.00 | 0.01 | 0.00 | 82 | 1017.3 |
| 20260831143702 | 83 | 47 | 3.0 | 8.0 | 0.00 | 0.01 | 0.00 | 81 | 1017.2 |
| 20260831143200 | 83 | 326 | 3.0 | 9.0 | 0.00 | 0.01 | 0.00 | 82 | 1017.2 |
| 20260831142701 | 82 | 5 | 4.0 | 9.0 | 0.00 | 0.01 | 0.00 | 83 | 1017.1 |
| 20260831142201 | 82 | 21 | 3.0 | 7.0 | 0.00 | 0.01 | 0.00 | 85 | 1017.1 |
| 20260831141202 | 82 | 17 | 4.0 | 8.0 | 0.00 | 0.01 | 0.00 | 85 | 1017.0 |
| 20260831140703 | 82 | 358 | 3.0 | 6.0 | 0.00 | 0.01 | 0.00 | 85 | 1016.9 |
| 20260831140202 | 82 | 27 | 3.0 | 6.0 | 0.00 | 0.01 | 0.00 | 85 | 1016.9 |
| 20260831135201 | 83 | 0 | 2.0 | 6.0 | 0.00 | 0.01 | 0.00 | 84 | 1016.8 |
| 20260831134702 | 83 | 10 | 2.0 | 6.0 | 0.00 | 0.01 | 0.00 | 83 | 1016.8 |
| 20260831134201 | 83 | 343 | 2.0 | 6.0 | 0.00 | 0.01 | 0.00 | 83 | 1016.7 |
| 20260831133701 | 83 | 351 | 2.0 | 6.0 | 0.00 | 0.01 | 0.00 | 85 | 1016.6 |
| 20260831133201 | 83 | 333 | 2.0 | 6.0 | 0.00 | 0.01 | 0.00 | 84 | 1016.6 |
| 20260831132201 | 83 | 332 | 2.0 | 5.0 | 0.00 | 0.01 | 0.00 | 84 | 1016.7 |
| 20260831131201 | 82 | 345 | 3.0 | 6.0 | 0.00 | 0.01 | 0.00 | 87 | 1016.7 |
| 20260831130701 | 82 | 19 | 2.0 | 6.0 | 0.00 | 0.01 | 0.00 | 86 | 1016.7 |
| 20260831130201 | 81 | 0 | 2.0 | 5.0 | 0.00 | 0.01 | 0.00 | 86 | 1016.6 |
| 20260831125701 | 82 | 34 | 3.0 | 7.0 | 0.00 | 0.01 | 0.00 | 86 | 1016.6 |
| 20260831124700 | 81 | 356 | 2.0 | 6.0 | 0.00 | 0.01 | 0.00 | 86 | 1016.7 |
| 20260831124200 | 80 | 47 | 2.0 | 6.0 | 0.00 | 0.01 | 0.00 | 87 | 1016.7 |
| 20260831123701 | 80 | 212 | 2.0 | 6.0 | 0.00 | 0.01 | 0.00 | 88 | 1016.7 |
| 20260831123200 | 79 | 0 | 2.0 | 6.0 | 0.00 | 0.01 | 0.00 | 90 | 1016.6 |
| 20260831122700 | 78 | 292 | 4.0 | 7.0 | 0.00 | 0.01 | 0.00 | 91 | 1016.5 |
| 20260831122203 | 78 | 26 | 2.0 | 7.0 | 0.00 | 0.01 | 0.00 | 92 | 1016.4 |
| 20260831121700 | 78 | 29 | 2.0 | 6.0 | 0.00 | 0.01 | 0.00 | 93 | 1016.4 |
| 20260831121201 | 77 | 28 | 3.0 | 6.0 | 0.00 | 0.01 | 0.00 | 93 | 1016.3 |
| 20260831120702 | 76 | 40 | 3.0 | 5.0 | 0.00 | 0.01 | 0.00 | 94 | 1016.2 |
| 20260831120202 | 76 | 14 | 3.0 | 5.0 | 0.00 | 0.01 | 0.00 | 94 | 1016.2 |
| 20260831115705 | 76 | 19 | 3.0 | 4.0 | 0.00 | 0.01 | 0.00 | 94 | 1016.3 |
| 20260831114648 | 76 | 22 | 2.0 | 3.0 | 0.00 | 0.01 | 0.00 | 94 | 1016.2 |
| 20260831113648 | 75 | 9 | 0.0 | 3.0 | 0.00 | 0.01 | 0.00 | 94 | 1016.1 |
| 20260831113148 | 75 | 0 | 1.0 | 2.0 | 0.00 | 0.01 | 0.00 | 94 | 1016.0 |
| 20260831112632 | 75 | 32 | 2.0 | 3.0 | 0.00 | 0.01 | 0.00 | 94 | 1016.0 |
| 20260831112132 | 75 | 349 | 2.0 | 3.0 | 0.00 | 0.01 | 0.00 | 94 | 1015.9 |
| 20260831111632 | 75 | 319 | 0.0 | 2.0 | 0.00 | 0.01 | 0.00 | 94 | 1015.9 |
| 20260831110634 | 75 | 0 | 0.0 | 2.0 | 0.00 | 0.01 | 0.00 | 94 | 1015.7 |
| 20260831105630 | 75 | 6 | 2.0 | 4.0 | 0.00 | 0.01 | 0.00 | 93 | 1015.7 |
| 20260831105131 | 75 | 7 | 2.0 | 4.0 | 0.00 | 0.01 | 0.00 | 93 | 1015.7 |
| 20260831104130 | 75 | 13 | 3.0 | 5.0 | 0.00 | 0.01 | 0.00 | 93 | 1015.6 |